Timestamp Temperature Pressure Humidity
2021-10-23 10:39:42 7.56 1019.52 84.86
2021-10-23 11:09:42 7.62 1019.42 85.11
2021-10-23 11:39:42 7.71 1019.3 83.95
2021-10-23 12:09:42 7.81 1019.18 82.98
2021-10-23 12:39:43 7.92 1019.06 82.26
2021-10-23 13:09:43 8.04 1018.94 80
2021-10-23 13:39:43 8.16 1018.8 79.99
2021-10-23 14:09:44 8.28 1018.65 80.08
2021-10-23 14:39:44 8.41 1018.48 78.46
2021-10-23 15:09:44 8.56 1018.3 77.29
2021-10-23 15:39:45 8.7 1018.12 76.26
2021-10-23 16:09:45 8.82 1017.93 77.97
2021-10-23 16:39:45 8.94 1017.73 79.08
2021-10-23 17:09:46 9.03 1017.53 79.71
2021-10-23 18:09:56 9.2 1017.11 80.18
2021-10-23 18:39:56 9.27 1016.91 80.84
2021-10-23 19:09:58 9.34 1016.74 81.16
2021-10-23 19:39:58 9.4 1016.58 81.69
2021-10-23 20:09:58 9.46 1016.42 82.49
2021-10-23 20:40:00 9.51 1016.25 83.98
2021-10-23 21:10:00 9.55 1016.09 85.73
2021-10-23 21:40:00 9.59 1015.9 85.48
2021-10-23 22:10:01 9.64 1015.72 84.06
2021-10-23 22:40:01 9.69 1015.53 83.8
2021-10-23 23:10:01 9.74 1015.35 83.94
2021-10-23 23:40:02 9.78 1015.16 83.92
2021-10-24 00:10:02 9.83 1014.97 84.78
2021-10-24 00:40:02 9.86 1014.77 85.04
2021-10-24 01:40:13 9.92 1014.35 85.85
2021-10-24 02:10:13 9.95 1014.13 85.32
2021-10-24 02:40:13 9.97 1013.89 86.68
2021-10-24 03:10:14 10 1013.63 86.75
2021-10-24 03:40:14 10.03 1013.36 87.32
2021-10-24 04:10:14 10.07 1013.1 87.25
2021-10-24 04:40:14 10.09 1012.85 87.98
2021-10-24 05:10:15 10.11 1012.6 88.92
2021-10-24 05:40:15 10.13 1012.35 89.53
2021-10-24 06:10:15 10.15 1012.1 90.13
2021-10-24 06:40:16 10.17 1011.85 90.44
2021-10-24 07:10:16 10.19 1011.61 90.9
2021-10-24 07:40:16 10.21 1011.36 91.2
2021-10-24 08:10:16 10.23 1011.13 91.5
2021-10-24 08:40:17 10.26 1010.93 91.61
2021-10-24 09:10:17 10.29 1010.75 91.21
2021-10-24 09:40:17 10.32 1010.58 90.63
2021-10-24 10:10:18 10.34 1010.43 89.8
2021-10-24 10:40:18 10.38 1010.28 89.31
2021-10-24 11:10:18 10.43 1010.14 88.1